Rochester, NY

4:21 AM EST on December 11, 2019 (GMT -0500)
Greater Rochester International

Weather History for KROC - May, 2019

Change the Weather History Date:

Saturday, May 4, 2019

  Actual Average Record
Temperature  
Mean Temperature 50 °F 53 °F  
Max Temperature 53 °F 64 °F 91 °F (1949)
Min Temperature 46 °F 43 °F 30 °F (1926)
Degree Days  
Heating Degree Days 15 12  
Month to date heating degree days 49 51  
Since 1 July heating degree days 6173 6354  
Cooling Degree Days 0 0  
Month to date cooling degree days 0 0  
Year to date cooling degree days 0 4  
Moisture  
Dew Point 45 °F    
Average Humidity 80    
Maximum Humidity 93    
Minimum Humidity 66    
Precipitation  
Precipitation T in 0.10 in 2.47 in (1893)
Month to date precipitation 0.80 0.37  
Year to date precipitation 10.73 9.96  
Snow  
Snow 0.00 in 0.00 in T in (1966)
Month to date snowfall 0.0 0.1  
Since 1 July snowfall 97.1 99.2  
Snow Depth 0.00 in    
Sea Level Pressure  
Sea Level Pressure 29.97 in    
Wind  
Wind Speed 5 mph (NE)    
Max Wind Speed 10 mph    
Max Gust Speed 12 mph    
Visibility 6 miles    
Events Fog    
T = Trace of Precipitation, MM = Missing Value Source: NWS Daily Summary

Daily Weather History Graph

Daily Weather History Graph

Search for Another Location

Airport or City:

Astronomy

May. 04, 2019 Rise Set
Actual Time 6:00 AM EDT 8:15 PM EDT
Civil Twilight 5:29 AM EDT 8:46 PM EDT
Nautical Twilight 4:50 AM EDT 9:25 PM EDT
Astronomical Twilight 4:07 AM EDT 10:08 PM EDT
Moon 6:13 AM EDT (5/4) 8:00 PM EDT (5/4)
Length of Visible Light 15h 17m
Length of Day
14h 14m
Waning Crescent, 0% of the Moon is Illuminated
May 4
Waning Crescent
May 4
New
May 11
First Quarter
May 18
Full
May 26
Last Quarter

Hourly Weather History & Observations

Time (EDT) Temp. Windchill Dew Point Humidity Pressure Visibility Wind Dir Wind Speed Gust Speed Precip Events Conditions
12:17 AM 48.0 °F - 46.0 °F 93% 30.00 in 1.8 mi NE 4.6 mph - N/A   Overcast
12:48 AM 48.2 °F - 46.4 °F 93% 30.00 in 3.0 mi ENE 3.5 mph - N/A   Overcast
12:54 AM 48.0 °F - 46.0 °F 93% 30.01 in 3.0 mi ENE 3.5 mph - N/A   Overcast
1:16 AM 48.0 °F - 46.0 °F 93% 29.99 in 1.8 mi ENE 4.6 mph - N/A   Overcast
1:43 AM 48.0 °F - 46.0 °F 93% 29.99 in 0.8 mi NNE 4.6 mph - N/A   Mist
1:54 AM 48.0 °F - 46.0 °F 93% 30.00 in 0.5 mi ENE 5.8 mph - N/A Fog Fog
2:40 AM 46.9 °F - 46.0 °F 97% 29.97 in 1.8 mi NNE 6.9 mph - N/A   Overcast
2:44 AM 46.9 °F - 46.0 °F 97% 29.96 in 3.0 mi NNE 6.9 mph - N/A   Overcast
2:54 AM 46.9 °F - 45.0 °F 93% 29.98 in 6.0 mi NE 5.8 mph - N/A   Overcast
3:35 AM 46.9 °F - 45.0 °F 93% 29.96 in 1.8 mi NNE 6.9 mph - N/A   Overcast
3:54 AM 46.9 °F - 45.0 °F 93% 29.97 in 1.2 mi NNE 8.1 mph - N/A   Overcast
4:22 AM 46.0 °F 41.9 °F 45.0 °F 96% 29.96 in 2.0 mi NNE 8.1 mph - N/A   Overcast
4:54 AM 46.9 °F - 45.0 °F 93% 29.98 in 2.5 mi NNE 4.6 mph - N/A   Overcast
5:36 AM 46.9 °F - 45.0 °F 93% 29.95 in 3.0 mi ENE 5.8 mph - 0.00 in   Light Drizzle
5:54 AM 46.9 °F - 45.0 °F 93% 29.98 in 3.0 mi East 4.6 mph - 0.00 in   Light Drizzle
6:23 AM 46.9 °F - 45.0 °F 93% 29.96 in 1.0 mi NE 6.9 mph - 0.00 in   Light Drizzle
6:54 AM 46.9 °F - 45.0 °F 93% 29.99 in 1.0 mi East 4.6 mph - 0.00 in   Overcast
7:22 AM 46.9 °F - 46.0 °F 97% 29.97 in 2.0 mi East 3.5 mph - N/A   Overcast
7:37 AM 46.9 °F - 45.0 °F 93% 29.98 in 10.0 mi ESE 3.5 mph - N/A   Overcast
7:54 AM 48.0 °F - 45.0 °F 89% 30.01 in 10.0 mi East 3.5 mph - N/A   Overcast
8:54 AM 48.9 °F - 46.0 °F 90% 30.00 in 10.0 mi ENE 6.9 mph - N/A   Overcast
9:54 AM 48.9 °F - 46.0 °F 90% 29.99 in 10.0 mi East 8.1 mph - N/A   Overcast
10:02 AM 48.9 °F - 46.0 °F 90% 29.98 in 2.0 mi ESE 8.1 mph - N/A   Overcast
10:39 AM 50.0 °F - 46.0 °F 86% 29.98 in 10.0 mi ENE 6.9 mph - N/A   Overcast
10:54 AM 50.0 °F - 46.9 °F 89% 30.00 in 10.0 mi ENE 5.8 mph - N/A   Overcast
11:07 AM 50.0 °F - 46.0 °F 86% 29.98 in 10.0 mi NE 4.6 mph - N/A   Overcast
11:54 AM 51.1 °F - 46.0 °F 83% 29.99 in 10.0 mi NE 4.6 mph - N/A   Overcast
12:54 PM 50.0 °F - 46.0 °F 86% 29.99 in 10.0 mi NE 6.9 mph - N/A   Overcast
1:54 PM 50.0 °F - 46.0 °F 86% 29.98 in 7.0 mi NE 6.9 mph - 0.00 in   Overcast
2:54 PM 51.1 °F - 45.0 °F 80% 29.97 in 10.0 mi ENE 4.6 mph - 0.00 in   Overcast
3:21 PM 52.0 °F - 46.0 °F 80% 29.94 in 10.0 mi Calm Calm - N/A   Overcast
3:54 PM 52.0 °F - 45.0 °F 77% 29.96 in 10.0 mi NNE 6.9 mph - N/A   Overcast
4:54 PM 53.1 °F - 45.0 °F 74% 29.94 in 10.0 mi NNE 4.6 mph - N/A   Overcast
5:32 PM 53.1 °F - 44.1 °F 71% 29.93 in 10.0 mi North 5.8 mph - N/A   Overcast
5:54 PM 53.1 °F - 44.1 °F 71% 29.95 in 10.0 mi NNE 8.1 mph - N/A   Overcast
6:54 PM 53.1 °F - 43.0 °F 69% 29.94 in 10.0 mi NNE 8.1 mph - N/A   Overcast
7:54 PM 50.0 °F - 43.0 °F 77% 29.95 in 10.0 mi NE 4.6 mph - N/A   Mostly Cloudy
8:54 PM 51.1 °F - 43.0 °F 74% 29.94 in 10.0 mi ENE 3.5 mph - N/A   Mostly Cloudy
9:54 PM 48.9 °F - 43.0 °F 80% 29.96 in 10.0 mi Calm Calm - N/A   Mostly Cloudy
10:54 PM 46.9 °F - 43.0 °F 86% 29.95 in 10.0 mi Calm Calm - N/A   Mostly Cloudy
11:54 PM 48.0 °F - 44.1 °F 86% 29.94 in 10.0 mi Calm Calm - N/A   Mostly Cloudy